AYN7333 UAAA-UACC

Flight info

Callsign AYN7333
Flight time 1h 27m
Altitude 34000
Route ETEDA1B ETEDA W333 BANOS BANOS1G
Aircraft A320/M-SDE3FGHIRWY/LB1

Departure

Time 2026-05-08 15:44
Airport Almaty International Airport (UAAA)

Arrival

Time 2026-05-08 17:12
Airport Nursultan Nazarbayev International Airport (UACC)
Time Latitude Longitude Altitude Speed Heading
2026-05-08 15:07 43.34869 77.01712 2226 ft 0 kts 184°
2026-05-08 15:35 43.34863 77.01712 2222 ft 2 kts 184°
2026-05-08 15:35 43.34848 77.01710 2223 ft 3 kts 184°
2026-05-08 15:36 43.34826 77.01705 2223 ft 4 kts 202°
2026-05-08 15:36 43.34813 77.01680 2225 ft 3 kts 265°
2026-05-08 15:36 43.34812 77.01644 2226 ft 4 kts 270°
2026-05-08 15:36 43.34813 77.01598 2226 ft 5 kts 273°
2026-05-08 15:37 43.34815 77.01541 2222 ft 7 kts 273°
2026-05-08 15:37 43.34803 77.01479 2224 ft 7 kts 245°
2026-05-08 15:37 43.34779 77.01411 2223 ft 8 kts 232°
2026-05-08 15:37 43.34726 77.01411 2222 ft 8 kts 158°
2026-05-08 15:38 43.34670 77.01445 2222 ft 9 kts 156°
2026-05-08 15:38 43.34604 77.01473 2224 ft 10 kts 168°
2026-05-08 15:38 43.34531 77.01503 2224 ft 12 kts 155°
2026-05-08 15:38 43.34455 77.01551 2226 ft 13 kts 157°
2026-05-08 15:39 43.34370 77.01601 2225 ft 14 kts 156°
2026-05-08 15:39 43.34325 77.01628 2224 ft 0 kts 156°
2026-05-08 15:39 43.34324 77.01629 2224 ft 0 kts 156°
2026-05-08 15:39 43.34320 77.01631 2223 ft 1 kts 156°
2026-05-08 15:40 43.34316 77.01634 2223 ft 1 kts 156°
2026-05-08 15:40 43.34310 77.01637 2224 ft 2 kts 155°
2026-05-08 15:40 43.34283 77.01655 2225 ft 6 kts 155°
2026-05-08 15:40 43.34264 77.01667 2228 ft 0 kts 155°
2026-05-08 15:41 43.34259 77.01669 2228 ft 2 kts 155°
2026-05-08 15:41 43.34221 77.01693 2230 ft 7 kts 155°
2026-05-08 15:42 43.34187 77.01719 2232 ft 4 kts 147°
2026-05-08 15:42 43.34165 77.01739 2232 ft 4 kts 145°
2026-05-08 15:42 43.34148 77.01768 2232 ft 4 kts 106°
2026-05-08 15:42 43.34161 77.01800 2232 ft 4 kts 62°
2026-05-08 15:43 43.34184 77.01847 2232 ft 14 kts 56°
2026-05-08 15:43 43.34367 77.02223 2233 ft 80 kts 56°
2026-05-08 15:43 43.34783 77.03067 2231 ft 131 kts 55°
2026-05-08 15:43 43.35366 77.04250 2233 ft 170 kts 56°
2026-05-08 15:44 43.36085 77.05714 2432 ft 190 kts 56°
2026-05-08 15:44 43.36824 77.07195 3113 ft 187 kts 56°
2026-05-08 15:44 43.37579 77.08655 3746 ft 187 kts 56°
2026-05-08 15:44 43.38356 77.10139 4169 ft 200 kts 55°
2026-05-08 15:45 43.39220 77.11788 4329 ft 223 kts 55°
2026-05-08 15:45 43.40171 77.13604 4539 ft 246 kts 55°
2026-05-08 15:45 43.41240 77.15578 4809 ft 268 kts 48°
2026-05-08 15:45 43.42854 77.16939 5229 ft 281 kts 12°
2026-05-08 15:46 43.44793 77.16846 5859 ft 282 kts 342°
2026-05-08 15:46 43.46608 77.15798 6609 ft 282 kts 331°
2026-05-08 15:46 43.48299 77.14489 7350 ft 283 kts 328°
2026-05-08 15:46 43.50018 77.13135 8093 ft 284 kts 330°
2026-05-08 15:47 43.51715 77.11707 8746 ft 287 kts 320°
2026-05-08 15:47 43.53049 77.09773 8937 ft 287 kts 304°
2026-05-08 15:47 43.53942 77.07359 9238 ft 288 kts 287°
2026-05-08 15:47 43.54301 77.04644 10004 ft 289 kts 274°
2026-05-08 15:48 43.54594 76.98750 10473 ft 328 kts 279°
2026-05-08 15:48 43.55221 76.95685 10944 ft 335 kts 294°
2026-05-08 15:48 43.56414 76.92902 11539 ft 339 kts 308°
2026-05-08 15:49 43.58028 76.90503 12162 ft 342 kts 314°
2026-05-08 15:49 43.59669 76.88173 12803 ft 344 kts 314°
2026-05-08 15:49 43.61340 76.85790 13405 ft 347 kts 314°
2026-05-08 15:49 43.63022 76.83380 14006 ft 350 kts 314°
2026-05-08 15:50 43.64721 76.80944 14555 ft 352 kts 314°
2026-05-08 15:50 43.66427 76.78497 15097 ft 355 kts 314°
2026-05-08 15:50 43.68150 76.76028 15634 ft 357 kts 314°
2026-05-08 15:50 43.69882 76.73547 16161 ft 360 kts 314°
2026-05-08 15:51 43.71627 76.71040 16694 ft 363 kts 313°
2026-05-08 15:51 43.73389 76.68509 17236 ft 366 kts 313°
2026-05-08 15:51 43.75136 76.65989 17762 ft 368 kts 313°
2026-05-08 15:51 43.76889 76.63383 18306 ft 371 kts 312°
2026-05-08 15:52 43.78636 76.60718 18771 ft 374 kts 311°
2026-05-08 15:52 43.80381 76.58019 19257 ft 376 kts 311°
2026-05-08 15:52 43.82132 76.55302 19732 ft 379 kts 311°
2026-05-08 15:52 43.83903 76.52562 20203 ft 382 kts 311°
2026-05-08 15:53 43.85891 76.50109 20656 ft 386 kts 325°
2026-05-08 15:53 43.88312 76.48449 21090 ft 391 kts 340°
2026-05-08 15:53 43.90958 76.47746 21510 ft 397 kts 356°
2026-05-08 15:53 43.93729 76.48065 21931 ft 403 kts 11°
2026-05-08 15:54 43.96396 76.49348 22342 ft 408 kts 20°
2026-05-08 15:54 43.99040 76.50826 22744 ft 411 kts 20°
2026-05-08 15:54 44.01708 76.52325 23159 ft 414 kts 20°
2026-05-08 15:54 44.04385 76.53827 23543 ft 417 kts 20°
2026-05-08 15:55 44.07088 76.55338 23878 ft 420 kts 19°
2026-05-08 15:55 44.12600 76.58128 24553 ft 422 kts 10°
2026-05-08 15:55 44.15499 76.58706 24894 ft 420 kts 360°
2026-05-08 15:56 44.18386 76.58574 25228 ft 419 kts 349°
2026-05-08 15:56 44.21245 76.57775 25563 ft 418 kts 343°
2026-05-08 15:56 44.24081 76.56818 25903 ft 421 kts 343°
2026-05-08 15:56 44.26935 76.55861 26252 ft 422 kts 343°
2026-05-08 15:57 44.29800 76.54904 26585 ft 424 kts 343°
2026-05-08 15:57 44.32676 76.53938 26921 ft 426 kts 342°
2026-05-08 15:57 44.35457 76.52661 27239 ft 425 kts 334°
2026-05-08 15:57 44.38190 76.51061 27577 ft 426 kts 334°
2026-05-08 15:58 44.40850 76.49504 27896 ft 428 kts 334°
2026-05-08 15:58 44.43614 76.47889 28242 ft 430 kts 334°
2026-05-08 15:58 44.46385 76.46268 28584 ft 432 kts 334°
2026-05-08 15:58 44.49140 76.44654 28914 ft 434 kts 334°
2026-05-08 15:59 44.51926 76.43022 29410 ft 432 kts 334°
2026-05-08 15:59 44.54703 76.41399 29907 ft 430 kts 334°
2026-05-08 15:59 44.57478 76.39777 30333 ft 429 kts 333°
2026-05-08 15:59 44.60199 76.38187 30743 ft 427 kts 333°
2026-05-08 16:00 44.62943 76.36575 31155 ft 426 kts 333°
2026-05-08 16:00 44.65678 76.34959 31576 ft 424 kts 333°
2026-05-08 16:00 44.68394 76.33354 31990 ft 423 kts 333°
2026-05-08 16:00 44.71071 76.31776 32399 ft 422 kts 333°
2026-05-08 16:01 44.73780 76.30182 32807 ft 421 kts 333°
2026-05-08 16:01 44.76481 76.28589 33217 ft 419 kts 333°
2026-05-08 16:01 44.79172 76.26997 33616 ft 418 kts 333°
2026-05-08 16:01 44.81857 76.25403 33893 ft 418 kts 333°
2026-05-08 16:02 44.87270 76.22172 33938 ft 424 kts 333°
2026-05-08 16:02 44.92723 76.18921 33941 ft 426 kts 333°
2026-05-08 16:03 44.98155 76.15691 33942 ft 426 kts 333°
2026-05-08 16:03 45.03619 76.12435 33942 ft 426 kts 333°
2026-05-08 16:04 45.09083 76.09167 33949 ft 426 kts 333°
2026-05-08 16:04 45.14541 76.05901 33953 ft 426 kts 333°
2026-05-08 16:05 45.20001 76.02608 33958 ft 425 kts 333°
2026-05-08 16:05 45.25421 75.99350 33962 ft 425 kts 333°
2026-05-08 16:06 45.30886 75.96061 33966 ft 425 kts 332°
2026-05-08 16:06 45.36336 75.92761 33966 ft 425 kts 332°
2026-05-08 16:07 45.41782 75.89460 33964 ft 425 kts 332°
2026-05-08 16:07 45.47196 75.86171 33959 ft 425 kts 332°
2026-05-08 16:08 45.52649 75.82849 33965 ft 425 kts 332°
2026-05-08 16:08 45.58098 75.79529 33963 ft 425 kts 332°
2026-05-08 16:09 45.62624 75.76759 33958 ft 425 kts 332°
2026-05-08 16:09 45.68964 75.72877 33961 ft 425 kts 332°
2026-05-08 16:10 45.73493 75.70109 33959 ft 425 kts 332°
2026-05-08 16:10 45.78947 75.66764 33956 ft 425 kts 331°
2026-05-08 16:11 45.84356 75.63430 33958 ft 425 kts 331°
2026-05-08 16:11 45.89797 75.60071 33956 ft 425 kts 331°
2026-05-08 16:12 45.95241 75.56700 33956 ft 425 kts 331°
2026-05-08 16:12 46.00689 75.53324 33955 ft 426 kts 331°
2026-05-08 16:13 46.06094 75.49964 33949 ft 426 kts 331°
2026-05-08 16:13 46.11549 75.46575 33956 ft 426 kts 331°
2026-05-08 16:14 46.16999 75.43184 33965 ft 426 kts 331°
2026-05-08 16:14 46.22413 75.39804 33974 ft 426 kts 331°
2026-05-08 16:15 46.27862 75.36408 33971 ft 426 kts 331°
2026-05-08 16:15 46.33315 75.33009 33972 ft 426 kts 331°
2026-05-08 16:16 46.38780 75.29612 33977 ft 427 kts 331°
2026-05-08 16:16 46.44203 75.26228 33979 ft 427 kts 331°
2026-05-08 16:17 46.49675 75.22806 33979 ft 427 kts 331°
2026-05-08 16:17 46.55140 75.19375 33981 ft 427 kts 331°
2026-05-08 16:18 46.60562 75.15961 33982 ft 428 kts 331°
2026-05-08 16:18 46.66026 75.12510 33984 ft 428 kts 331°
2026-05-08 16:19 46.71502 75.09058 33991 ft 429 kts 331°
2026-05-08 16:19 46.76981 75.05593 33990 ft 429 kts 331°
2026-05-08 16:20 46.82461 75.02110 33996 ft 429 kts 331°
2026-05-08 16:20 46.87911 74.98638 33997 ft 430 kts 331°
2026-05-08 16:21 46.93487 74.95353 33995 ft 432 kts 334°
2026-05-08 16:21 46.99152 74.92339 33997 ft 433 kts 334°
2026-05-08 16:22 47.04793 74.89316 34000 ft 433 kts 334°
2026-05-08 16:22 47.10440 74.86210 33999 ft 433 kts 333°
2026-05-08 16:23 47.16088 74.83060 34007 ft 433 kts 333°
2026-05-08 16:23 47.21719 74.79909 34013 ft 433 kts 333°
2026-05-08 16:24 47.27362 74.76765 34019 ft 433 kts 333°
2026-05-08 16:24 47.32972 74.73644 34023 ft 433 kts 333°
2026-05-08 16:25 47.38606 74.70498 34040 ft 432 kts 333°
2026-05-08 16:25 47.44227 74.67358 34032 ft 431 kts 333°
2026-05-08 16:26 47.49833 74.64200 34034 ft 430 kts 333°
2026-05-08 16:26 47.55416 74.61046 34038 ft 429 kts 333°
2026-05-08 16:27 47.60969 74.57933 34031 ft 428 kts 333°
2026-05-08 16:27 47.66547 74.54813 34039 ft 427 kts 333°
2026-05-08 16:28 47.72078 74.51703 34043 ft 427 kts 333°
2026-05-08 16:28 47.77641 74.48573 34037 ft 427 kts 333°
2026-05-08 16:29 47.83208 74.45430 34041 ft 427 kts 333°
2026-05-08 16:29 47.88730 74.42299 34037 ft 426 kts 333°
2026-05-08 16:30 47.94290 74.39143 34035 ft 427 kts 333°
2026-05-08 16:30 47.99845 74.35978 34036 ft 427 kts 333°
2026-05-08 16:31 48.05364 74.32826 34032 ft 427 kts 333°
2026-05-08 16:31 48.10925 74.29653 34033 ft 427 kts 333°
2026-05-08 16:32 48.16480 74.26477 34036 ft 427 kts 334°
2026-05-08 16:32 48.22012 74.23342 34040 ft 427 kts 334°
2026-05-08 16:33 48.27591 74.20186 34036 ft 427 kts 334°
2026-05-08 16:33 48.33124 74.17045 34037 ft 427 kts 333°
2026-05-08 16:34 48.38689 74.13865 34041 ft 427 kts 333°
2026-05-08 16:34 48.44227 74.10707 34041 ft 427 kts 333°
2026-05-08 16:35 48.49786 74.07532 34042 ft 427 kts 333°
2026-05-08 16:35 48.55344 74.04336 34037 ft 427 kts 333°
2026-05-08 16:36 48.60907 74.01135 34037 ft 427 kts 333°
2026-05-08 16:36 48.66463 73.97940 34034 ft 427 kts 333°
2026-05-08 16:37 48.72011 73.94738 34032 ft 427 kts 333°
2026-05-08 16:37 48.77529 73.91535 34029 ft 427 kts 333°
2026-05-08 16:38 48.83070 73.88311 34024 ft 427 kts 333°
2026-05-08 16:38 48.88625 73.85074 34025 ft 427 kts 333°
2026-05-08 16:39 48.94182 73.81830 34019 ft 427 kts 333°
2026-05-08 16:39 48.99695 73.78605 34016 ft 427 kts 333°
2026-05-08 16:40 49.05252 73.75336 34018 ft 427 kts 333°
2026-05-08 16:40 49.10801 73.72064 34012 ft 427 kts 333°
2026-05-08 16:41 49.16356 73.68765 34004 ft 427 kts 333°
2026-05-08 16:42 49.24678 73.63825 34002 ft 428 kts 333°
2026-05-08 16:42 49.30204 73.60533 34002 ft 428 kts 333°
2026-05-08 16:43 49.35765 73.57206 34004 ft 429 kts 333°
2026-05-08 16:43 49.41335 73.53887 34008 ft 429 kts 333°
2026-05-08 16:44 49.46877 73.50572 34011 ft 429 kts 333°
2026-05-08 16:44 49.52433 73.47221 34016 ft 429 kts 333°
2026-05-08 16:45 49.58004 73.43865 34022 ft 429 kts 333°
2026-05-08 16:45 49.63572 73.40506 34020 ft 429 kts 333°
2026-05-08 16:46 49.68891 73.36609 34017 ft 421 kts 321°
2026-05-08 16:46 49.73296 73.30807 34020 ft 415 kts 312°
2026-05-08 16:47 49.77525 73.24718 34020 ft 415 kts 312°
2026-05-08 16:47 49.81764 73.18628 33945 ft 414 kts 312°
2026-05-08 16:47 49.83847 73.15630 33412 ft 412 kts 312°
2026-05-08 16:48 49.85932 73.12616 32962 ft 407 kts 312°
2026-05-08 16:48 49.87992 73.09632 32518 ft 403 kts 312°
2026-05-08 16:48 49.90033 73.06672 32058 ft 399 kts 312°
2026-05-08 16:48 49.92054 73.03738 31620 ft 395 kts 312°
2026-05-08 16:49 49.94053 73.00837 31189 ft 391 kts 311°
2026-05-08 16:49 49.96032 72.97964 30760 ft 387 kts 311°
2026-05-08 16:49 49.97990 72.95111 30350 ft 384 kts 311°
2026-05-08 16:49 49.99903 72.92320 29945 ft 380 kts 311°
2026-05-08 16:50 50.01816 72.89524 29503 ft 375 kts 311°
2026-05-08 16:50 50.03708 72.86758 29133 ft 370 kts 311°
2026-05-08 16:50 50.05574 72.84026 28751 ft 365 kts 311°
2026-05-08 16:50 50.07412 72.81334 28366 ft 361 kts 311°
2026-05-08 16:51 50.09235 72.78659 28011 ft 357 kts 311°
2026-05-08 16:51 50.11033 72.76014 27643 ft 354 kts 311°
2026-05-08 16:51 50.12817 72.73385 27285 ft 350 kts 311°
2026-05-08 16:51 50.14557 72.70819 26933 ft 347 kts 311°
2026-05-08 16:52 50.16304 72.68239 26571 ft 344 kts 311°
2026-05-08 16:52 50.18055 72.65713 26193 ft 343 kts 316°
2026-05-08 16:52 50.20034 72.63592 25816 ft 347 kts 326°
2026-05-08 16:52 50.22191 72.61878 25431 ft 346 kts 328°
2026-05-08 16:53 50.26449 72.58529 24651 ft 343 kts 328°
2026-05-08 16:53 50.28573 72.56848 24250 ft 342 kts 328°
2026-05-08 16:53 50.30701 72.55158 23849 ft 342 kts 328°
2026-05-08 16:54 50.32830 72.53469 23425 ft 342 kts 328°
2026-05-08 16:54 50.34948 72.51791 22988 ft 340 kts 328°
2026-05-08 16:54 50.37062 72.50120 22574 ft 338 kts 328°
2026-05-08 16:54 50.38452 72.49020 22299 ft 337 kts 328°
2026-05-08 16:55 50.41215 72.46833 21767 ft 334 kts 328°
2026-05-08 16:55 50.42621 72.45716 21492 ft 333 kts 328°
2026-05-08 16:55 50.44687 72.44076 21090 ft 331 kts 328°
2026-05-08 16:55 50.46737 72.42446 20692 ft 330 kts 328°
2026-05-08 16:56 50.48764 72.40828 20301 ft 329 kts 328°
2026-05-08 16:56 50.50801 72.39197 19905 ft 328 kts 328°
2026-05-08 16:56 50.52840 72.37562 19493 ft 327 kts 328°
2026-05-08 16:56 50.54847 72.35953 19098 ft 327 kts 328°
2026-05-08 16:57 50.56878 72.34327 18705 ft 326 kts 329°
2026-05-08 16:57 50.58902 72.32710 18313 ft 326 kts 329°
2026-05-08 16:57 50.60925 72.31089 17873 ft 326 kts 329°
2026-05-08 16:57 50.62938 72.29471 17472 ft 324 kts 329°
2026-05-08 16:58 50.64940 72.27856 17076 ft 322 kts 329°
2026-05-08 16:58 50.66931 72.26249 16689 ft 320 kts 329°
2026-05-08 16:58 50.68918 72.24646 16296 ft 319 kts 329°
2026-05-08 16:58 50.70895 72.23049 15907 ft 318 kts 329°
2026-05-08 16:59 50.72840 72.21477 15526 ft 317 kts 329°
2026-05-08 16:59 50.74812 72.19884 15149 ft 316 kts 329°
2026-05-08 16:59 50.76766 72.18308 14782 ft 315 kts 329°
2026-05-08 16:59 50.78722 72.16728 14403 ft 315 kts 329°
2026-05-08 17:00 50.80671 72.15153 14035 ft 314 kts 330°
2026-05-08 17:00 50.82621 72.13573 13652 ft 314 kts 330°
2026-05-08 17:00 50.84537 72.12020 13262 ft 313 kts 330°
2026-05-08 17:00 50.86469 72.10455 12891 ft 311 kts 330°
2026-05-08 17:01 50.88393 72.08894 12519 ft 309 kts 330°
2026-05-08 17:01 50.90287 72.07351 12337 ft 301 kts 329°
2026-05-08 17:01 50.92140 72.05836 12101 ft 297 kts 329°
2026-05-08 17:01 50.93967 72.04342 11851 ft 294 kts 330°
2026-05-08 17:02 50.95763 72.02874 11612 ft 293 kts 330°
2026-05-08 17:02 50.97572 72.01397 11351 ft 292 kts 330°
2026-05-08 17:02 50.99396 71.99909 10868 ft 297 kts 330°
2026-05-08 17:02 51.01219 71.98416 10604 ft 293 kts 330°
2026-05-08 17:03 51.03023 71.96941 10148 ft 290 kts 330°
2026-05-08 17:03 51.04821 71.95470 9538 ft 289 kts 330°
2026-05-08 17:03 51.06597 71.94013 8922 ft 286 kts 330°
2026-05-08 17:03 51.08357 71.92567 8304 ft 284 kts 330°
2026-05-08 17:04 51.10107 71.91129 7777 ft 280 kts 330°
2026-05-08 17:04 51.11837 71.89708 7205 ft 278 kts 330°
2026-05-08 17:04 51.13529 71.88280 6703 ft 273 kts 326°
2026-05-08 17:04 51.14979 71.86519 6602 ft 251 kts 314°
2026-05-08 17:05 51.16162 71.84634 6534 ft 232 kts 313°
2026-05-08 17:05 51.17278 71.82846 6412 ft 230 kts 313°
2026-05-08 17:05 51.18403 71.81046 6180 ft 229 kts 313°
2026-05-08 17:05 51.19499 71.79244 5887 ft 221 kts 306°
2026-05-08 17:06 51.20114 71.77008 5724 ft 222 kts 275°
2026-05-08 17:06 51.19881 71.74663 5530 ft 211 kts 244°
2026-05-08 17:06 51.18990 71.72878 5328 ft 201 kts 226°
2026-05-08 17:06 51.18018 71.71359 5063 ft 191 kts 227°
2026-05-08 17:07 51.17098 71.69913 4821 ft 181 kts 227°
2026-05-08 17:07 51.16232 71.68550 4589 ft 173 kts 227°
2026-05-08 17:07 51.15376 71.67200 4366 ft 173 kts 227°
2026-05-08 17:07 51.14516 71.65846 4139 ft 173 kts 227°
2026-05-08 17:08 51.13659 71.64497 3904 ft 173 kts 227°
2026-05-08 17:08 51.12798 71.63143 3684 ft 174 kts 227°
2026-05-08 17:08 51.11943 71.61799 3488 ft 166 kts 227°
2026-05-08 17:08 51.11158 71.60567 3252 ft 157 kts 227°
2026-05-08 17:09 51.10389 71.59359 3050 ft 154 kts 227°
2026-05-08 17:09 51.09632 71.58171 2850 ft 152 kts 227°
2026-05-08 17:09 51.08879 71.56990 2651 ft 151 kts 227°
2026-05-08 17:09 51.08125 71.55807 2455 ft 152 kts 226°
2026-05-08 17:10 51.07369 71.54622 2264 ft 152 kts 226°
2026-05-08 17:10 51.06623 71.53454 2064 ft 151 kts 226°
2026-05-08 17:10 51.05872 71.52285 1870 ft 151 kts 225°
2026-05-08 17:10 51.05131 71.51120 1644 ft 148 kts 225°
2026-05-08 17:11 51.04403 71.49981 1482 ft 146 kts 224°
2026-05-08 17:11 51.03687 71.48857 1282 ft 143 kts 224°
2026-05-08 17:11 51.02984 71.47763 1170 ft 131 kts 224°
2026-05-08 17:11 51.02518 71.47034 1165 ft 52 kts 224°
2026-05-08 17:12 51.02436 71.46908 1167 ft 2 kts 224°
2026-05-08 17:12 51.02417 71.46891 1164 ft 4 kts 209°
2026-05-08 17:12 51.02422 71.46880 1164 ft 1 kts 331°
2026-05-08 17:12 51.02442 71.46892 1164 ft 4 kts 19°
2026-05-08 17:13 51.02472 71.46911 1167 ft 5 kts 21°
2026-05-08 17:13 51.02511 71.46923 1165 ft 7 kts 352°
2026-05-08 17:13 51.02557 71.46864 1164 ft 11 kts 315°
2026-05-08 17:13 51.02614 71.46768 1164 ft 13 kts 306°
2026-05-08 17:14 51.02582 71.46666 1164 ft 11 kts 226°
2026-05-08 17:14 51.02521 71.46570 1164 ft 13 kts 224°
2026-05-08 17:14 51.02450 71.46460 1164 ft 15 kts 224°
2026-05-08 17:14 51.02367 71.46333 1164 ft 17 kts 226°
2026-05-08 17:15 51.02384 71.46183 1164 ft 15 kts 308°
2026-05-08 17:15 51.02462 71.46058 1162 ft 17 kts 315°
2026-05-08 17:15 51.02528 71.45952 1164 ft 11 kts 315°
2026-05-08 17:15 51.02589 71.45957 1163 ft 7 kts 31°
2026-05-08 17:16 51.02618 71.45985 1163 ft 4 kts 28°
2026-05-08 17:16 51.02632 71.45996 1163 ft 2 kts 27°
2026-05-08 17:16 51.02632 71.45997 1163 ft 0 kts 27°